Regional Weather Roundup
Issued by NWS

Home | Current Version | Previous Version | Graphics & Text | Print | Product List | Glossary On
Versions: 1 2 3 4 5 6 7 8 9 10 11 12 13 14 15 16 17 18 19 20 21 22 23 24 25 26 27
000
ASUS45 KSLC 181510
RWRUT

UTAH REGIONAL WEATHER ROUNDUP
NATIONAL WEATHER SERVICE SALT LAKE CITY UT
900 AM MDT FRI APR 18 2014

UTZ001>011-023>025-181600-

NORTHERN UTAH

CITY           SKY/WX    TMP DP  RH WIND       PRES   REMARKS
HILL AFB       CLOUDY    61  26  26 SW3       29.89R
LOGAN          CLOUDY    53  41  63 NW12      29.89R
OGDEN          CLOUDY    61  30  31 SW8       29.87R
PROVO AIRPORT  CLOUDY    55  34  44 SE8       29.92R
SALT LAKE CITY CLOUDY    64  25  22 SW6       29.86R
VERNAL         MOSUNNY   53  27  36 CALM      29.99F
WENDOVER       CLOUDY    55  37  50 E7        29.90R
HEBER CITY     CLOUDY    55  30  38 CALM      29.94R
WEST JORDAN    SUNNY     63  30  29 SE22      29.88R

$$

UTZ012>022-026-027-181600-

SOUTHERN UTAH

CITY           SKY/WX    TMP DP  RH WIND       PRES   REMARKS
BRYCE CANYON   PTSUNNY   54  21  27 SE10      30.10F
CEDAR CITY     PTSUNNY   54  24  31 CALM      29.99R
MILFORD        PTSUNNY   57  20  23 S9        29.96R
MOAB/CYNLANDS  SUNNY     57  26  30 SE9       29.99R
PRICE          CLOUDY    52  22  30 CALM      30.02R
ST GEORGE      CLOUDY    63  21  20 CALM      29.93R
KANAB            N/A     55  23  28 N10       30.05R

$$

REGIONAL REPORTS     COLORADO/ARIZONA

CITY           SKY/WX    TMP DP  RH WIND       PRES   REMARKS
CRAIG, CO      PTSUNNY   48  31  51 CALM      30.05S
GRAND JUNCTION PTSUNNY   56  26  31 SE20      30.03R
RIFLE          MOSUNNY   45  28  51 CALM      30.10R
MONTROSE       PTSUNNY   52  29  41 CALM      30.11S
CORTEZ         SUNNY     53  28  38 W3        30.12S
PAGE, AZ       PTSUNNY   61  26  26 CALM      29.98R
GRAND CANYON   PTSUNNY   57  22  25 S5        30.10R
KINGMAN        CLOUDY    64  20  18 E16       29.92R
FLAGSTAFF      CLOUDY    49  21  33 SW5       30.13R

$$

REGIONAL REPORTS    NEVADA/IDAHO/WYOMING

CITY           SKY/WX    TMP DP  RH WIND       PRES   REMARKS
LAS VEGAS, NV  CLOUDY    69  27  20 S10       29.81R
ELY            CLOUDY    51  21  30 SW13      29.97R
ELKO           CLOUDY    50  37  61 N10       29.99R
POCATELLO, ID  PTSUNNY   45  41  86 SW22      29.94R
BURLEY         CLOUDY    45  40  82 W16       29.97R
EVANSTON, WY   PTSUNNY   58  22  24 SW24G30   29.94S
ROCK SPRINGS   CLOUDY    57  22  25 S15       29.94S

$$



USA.gov is the U.S. government's official web portal to all federal, state and local government web resources and services.